TOURFACTS.DK  
Stats and Facts from Tour de France.

Tour de France 2018 starts in 11 days
  Riders   Stages   Teams   Summits   Yearly  


 
Search by year

After 2017 - Stage 21:
 14824 starters.
  5132 different riders.
  639 teams.
  2232 stages.
  456 restdays.
  439589.60 km.
  5653 abandonnees.


Top 3
GC
Christopher Froome86:20:55
Rigoberto Urán86:21:49
Romain Bardet86:23:15
Climb
Warren Barguil169 pt.
Primoz Roglic80 pt.
Thomas De Gendt64 pt.
Sprint
Michael Matthews359 pt.
André Greipel234 pt.
Edvald Boasson Hagen220 pt.
Youth
Simon Yates86:27:09
Louis Meintjes86:29:15
Emanuel Buchmann86:54:16
Facts from Tour de France 1995
  |   Stages.  |   Stage winners.  |   Days in yellow  |   Average speed.  |   Route.  |   Teams.  |   All riders.  |   Rookies.  |  

  |   Withdrawls.  |   GC.  |   Polka  |   Green  |   White  |   Summits. (In tour)  |   Miscellaneous.  |  

Stage 8 on 09 - 07 - 1995
         Owning:    Miguel Indurain    
Pick a stage:  Pro 1 2 3 4 5 6 7 8 9 10 11 12 13 14 15 17 18 19 20
  HuySeraing | Dist: 54.00 km.
Cat: 4Côte de Pont-de-BonneESPMiguel Indurain
5 points
 

Average speed for all riders in stage:  44,192 km./hr.
    Place:Name:Team:Time:Km/h:
ESPMiguel IndurainESPBanesto01:04:16  +  00:00:00=50,415 
DENBjarne RiisITAGewiss-Ballan01:04:28  +  00:00:12=50,259 
DENTony RomingerBELMapei-GP01:05:14  +  00:00:58=49,668 
4 URSEvgueni BerzinITAGewiss-Ballan01:05:54  +  00:01:38=49,165 
5 ESPMelchor MauriESPO.N.C.E.01:06:32  +  00:02:16=48,697 
6 FRALaurent JalabertESPO.N.C.E.01:06:52  +  00:02:36=48,455 
7 BELJohan BruyneelESPO.N.C.E.01:07:17  +  00:03:01=48,155 
8 FRABruno ThiboutFRACastorama01:07:49  +  00:03:33=47,776 
9 NEDErik BreukinkESPO.N.C.E.01:08:04  +  00:03:48=47,600 
10 SUIAlex ZülleESPO.N.C.E.01:08:12  +  00:03:56=47,507 
11 ITAIvan GottiITAGewiss-Ballan01:08:20  +  00:04:04=47,415 
12 ESPVicente AparicioESPBanesto01:08:33  +  00:04:17=47,265 
13 POLZenon JaskulaITAAki-Gipiemme01:08:41  +  00:04:25=47,173 
14 ESPMariano RojasESPO.N.C.E.01:08:50  +  00:04:34=47,070 
15 ITAAlberto ElliITAMG Maglificio-Technogym01:09:09  +  00:04:53=46,855 
16 FRAArmand De Las CuevasFRACastorama01:09:14  +  00:04:58=46,798 
17 FRAYvon LedanoisFRAGan01:09:15  +  00:04:59=46,787 
18 ITAClaudio ChiappucciITACarrera-Tassoni01:09:22  +  00:05:06=46,708 
19 USALance ArmstrongUSAMotorola01:09:25  +  00:05:09=46,675 
20 FRAThierry MarieFRACastorama01:09:30  +  00:05:14=46,619 
21 FRAFrancis MoreauFRAGan01:09:51  +  00:05:35=46,385 
22 RUSPavel TonkovITALampre-Panaria01:09:56  +  00:05:40=46,330 
23 FRAJean-Cyril RobinFRAFestina01:10:17  +  00:06:01=46,099 
24 FRAJean-François BernardFRAChazal-MBK-Konig01:10:23  +  00:06:07=46,034 
25 DENBo HamburgerNLDTVM-Polis Direct01:10:34  +  00:06:18=45,914 
26 FRALaurent BrochardFRAFestina01:10:35  +  00:06:19=45,903 
27 ITAMassimiliano LelliITAMercatone Uno-Saeco01:10:39  +  00:06:23=45,860 
28 SUIGianni BugnoITAMG Maglificio-Technogym01:10:46  +  00:06:30=45,784 
29 ITAMassimo DonatiITAMercatone Uno-Saeco01:10:47  +  00:06:31=45,773 
30 ESPFrancisco MauleonBELMapei-GP01:10:55  +  00:06:39=45,687 
31 URSViatcheslav EkimovNLDNovell01:10:59  +  00:06:43=45,645 
32 DENJesper SkibbyNLDTVM-Polis Direct01:11:01  +  00:06:45=45,623 
33 ESPFernando EscartinBELMapei-GP01:11:05  +  00:06:49=45,580 
34 DDROlaf LudwigITATelecom-ZG-Selle Italia01:11:08  +  00:06:52=45,548 
35 ITAMassimo PodenzanaITABrescialat01:11:09  +  00:06:53=45,538 
36 FRAPascal LanceFRAGan01:11:13  +  00:06:57=45,495 
37 MARRichard VirenqueFRAFestina01:11:16  +  00:07:00=45,463 
38 ITAGabriele ColomboITAGewiss-Ballan01:11:16  +  00:07:00=45,463 
39 ESPArsenio GonzálezBELMapei-GP01:11:17  +  00:07:01=45,452 
40 SUILaurent DufauxFRAFestina01:11:19  +  00:07:03=45,431 
41 FRADidier RousFRAGan01:11:22  +  00:07:06=45,399 
42 SUIFabian JekerFRAFestina01:11:24  +  00:07:08=45,378 
43 URSDjamolidine AbduzhaparovNLDNovell01:11:26  +  00:07:10=45,357 
44 CANSteve BauerUSAMotorola01:11:27  +  00:07:11=45,346 
45 FRAGérard RuéESPBanesto01:11:33  +  00:07:17=45,283 
46 COLAlvaro MejiaUSAMotorola01:11:35  +  00:07:19=45,262 
47 ITAGianluca BortolamiBELMapei-GP01:11:35  +  00:07:19=45,262 
48 GERRolf AldagITATelecom-ZG-Selle Italia01:11:36  +  00:07:20=45,251 
49 ITAGuido BontempiITAGewiss-Ballan01:11:37  +  00:07:21=45,241 
50 ITAAndrea TafiBELMapei-GP01:11:45  +  00:07:29=45,157 
51 ITABruno CenghialtaITAGewiss-Ballan01:11:46  +  00:07:30=45,146 
52 ITAAndrea PeronUSAMotorola01:11:46  +  00:07:30=45,146 
53 FRALaurent MadouasFRACastorama01:11:55  +  00:07:39=45,052 
54 FRAThierry LaurentFRACastorama01:12:07  +  00:07:51=44,927 
55 ITAMarco PantaniITACarrera-Tassoni01:12:07  +  00:07:51=44,927 
56 ENGMaximilian SciandriITAMG Maglificio-Technogym01:12:09  +  00:07:53=44,906 
57 NEDEddy BouwmansNLDNovell01:12:09  +  00:07:53=44,906 
58 URSVladimir PoulnikovITATelecom-ZG-Selle Italia01:12:19  +  00:08:03=44,803 
59 SUIBeat ZbergITACarrera-Tassoni01:12:23  +  00:08:07=44,762 
60 AUSNeil StephensESPO.N.C.E.01:12:25  +  00:08:09=44,741 
61 FRAEmmanuel MagnienFRACastorama01:12:25  +  00:08:09=44,741 
62 ITAMario CipolliniITAMercatone Uno-Saeco01:12:31  +  00:08:15=44,679 
63 ESPJosé UriarteESPBanesto01:12:32  +  00:08:16=44,669 
64 SUIBruno BoscardinFRAFestina01:12:35  +  00:08:19=44,638 
65 GERDirk BaldingerITATeam Polti01:12:37  +  00:08:21=44,618 
66 VENLeonardo SierraITACarrera-Tassoni01:12:41  +  00:08:25=44,577 
67 ITAGianluca GoriniITAAki-Gipiemme01:12:41  +  00:08:25=44,577 
68 BELJohan MuseeuwBELMapei-GP01:12:42  +  00:08:26=44,567 
69 ITADario BottaroITAGewiss-Ballan01:12:42  +  00:08:26=44,567 
70 ITAFlavio VanzellaITAMG Maglificio-Technogym01:12:57  +  00:08:41=44,414 
71 ITASilvio MartinelloITAMercatone Uno-Saeco01:12:59  +  00:08:43=44,394 
72 AUTGeorg TotschnigITATeam Polti01:13:01  +  00:08:45=44,373 
73 DDRJens HeppnerITATelecom-ZG-Selle Italia01:13:05  +  00:08:49=44,333 
74 FRAJacky DurandFRACastorama01:13:06  +  00:08:50=44,323 
75 ITAEnrico ZainaITACarrera-Tassoni01:13:10  +  00:08:54=44,282 
76 URSArturas KasputisFRAChazal-MBK-Konig01:13:12  +  00:08:56=44,262 
77 FRAThomas DavyESPBanesto01:13:18  +  00:09:02=44,202 
78 FRADenis ZanetteITAAki-Gipiemme01:13:25  +  00:09:09=44,132 
79 UKRAlexander GontchenkovITALampre-Panaria01:13:34  +  00:09:18=44,042 
80 ITANicola LodaITAMG Maglificio-Technogym01:13:36  +  00:09:20=44,022 
81 ESPHerminio ZabalaESPO.N.C.E.01:13:37  +  00:09:21=44,012 
82 ITAAlessio GallettiITALampre-Panaria01:13:38  +  00:09:22=44,002 
83 URSArvis PiziksNLDNovell01:13:39  +  00:09:23=43,992 
84 ITAEros PoliITAMercatone Uno-Saeco01:13:39  +  00:09:23=43,992 
85 ITAMaurizio FondriestITALampre-Panaria01:13:40  +  00:09:24=43,982 
86 FRAFrançois SimonFRACastorama01:13:41  +  00:09:25=43,972 
87 COLAngel OchoaESPKelme-Avianca01:13:45  +  00:09:29=43,932 
88 ESPMarino MonjeESPBanesto01:13:47  +  00:09:31=43,912 
89 COLHernán BuenahoraESPKelme-Avianca01:13:50  +  00:09:34=43,883 
90 FRAGilles BouvardFRAChazal-MBK-Konig01:13:53  +  00:09:37=43,853 
91 SUIRolf JärmannITAMG Maglificio-Technogym01:13:57  +  00:09:41=43,813 
92 ITAMarco SerpelliniITALampre-Panaria01:14:06  +  00:09:50=43,725 
93 ITAAndrea FerrigatoITATelecom-ZG-Selle Italia01:14:07  +  00:09:51=43,715 
94 ITARossano BrasiITATeam Polti01:14:09  +  00:09:53=43,695 
95 ITAPaolo LanfranchiITABrescialat01:14:09  +  00:09:53=43,695 
96 ITAMauro BettinITAAki-Gipiemme01:14:10  +  00:09:54=43,685 
97 ITAOscar PelliccioliITATeam Polti01:14:11  +  00:09:55=43,676 
98 ITAMario ScireaITATeam Polti01:14:15  +  00:09:59=43,636 
99 ESPCarmelo MirandaESPBanesto01:14:17  +  00:10:01=43,617 
100 ITAAlberto VolpiITAGewiss-Ballan01:14:18  +  00:10:02=43,607 
101 FRAChristophe CapelleFRAGan01:14:19  +  00:10:03=43,597 
102 ESPAitor GarmendiaESPBanesto01:14:19  +  00:10:03=43,597 
103 NEDJelle NijdamNLDTVM-Polis Direct01:14:29  +  00:10:13=43,500 
104 ESPRamon GonzalezESPBanesto01:14:31  +  00:10:15=43,480 
105 MEXMiguel ArroyoFRAChazal-MBK-Konig01:14:31  +  00:10:15=43,480 
106 AUSStephen HodgeFRAFestina01:14:32  +  00:10:16=43,470 
107 BELHerman FrisonBELLotto-Isoglass01:14:34  +  00:10:18=43,451 
108 GERUdo BöltsITATelecom-ZG-Selle Italia01:14:35  +  00:10:19=43,441 
109 URSSerguei OutschakovITATeam Polti01:14:37  +  00:10:21=43,422 
110 ITAMarco MilesiITABrescialat01:14:39  +  00:10:23=43,403 
111 NEDMaarten Den BakkerNLDTVM-Polis Direct01:14:39  +  00:10:23=43,403 
112 URSDimitri KonychevITAAki-Gipiemme01:14:41  +  00:10:25=43,383 
113 BELMarc WautersNLDNovell01:14:44  +  00:10:28=43,354 
114 DDRErik ZabelITATelecom-ZG-Selle Italia01:14:48  +  00:10:32=43,316 
115 FRAÉric BoyerITATeam Polti01:14:51  +  00:10:35=43,287 
116 URSAndrei TchmilBELLotto-Isoglass01:14:51  +  00:10:35=43,287 
117 ITAAngelo LecchiITABrescialat01:14:53  +  00:10:37=43,267 
118 BELWilfried PeetersBELMapei-GP01:14:54  +  00:10:38=43,258 
119 BELEric VanderaerdenITABrescialat01:15:04  +  00:10:48=43,162 
120 NEDFrans MaassenNLDNovell01:15:05  +  00:10:49=43,152 
121 COLJulio CabreraESPKelme-Avianca01:15:07  +  00:10:51=43,133 
122 COLFederico FernandezESPKelme-Avianca01:15:10  +  00:10:54=43,104 
123 NEDLeon van BonNLDNovell01:15:11  +  00:10:55=43,095 
124 ITAGiovanni FidanzaITATeam Polti01:15:17  +  00:11:01=43,037 
125 NEDBart VoskampNLDTVM-Polis Direct01:15:19  +  00:11:03=43,018 
126 ITARoberto PetitoITAMercatone Uno-Saeco01:15:19  +  00:11:03=43,018 
127 FRAGilles TalmantFRACastorama01:15:20  +  00:11:04=43,009 
128 ESPLaudelino CubinoESPKelme-Avianca01:15:26  +  00:11:10=42,952 
129 USAFrankie AndreuUSAMotorola01:15:31  +  00:11:15=42,904 
130 ITAGian Matteo FagniniITAMercatone Uno-Saeco01:15:36  +  00:11:20=42,857 
131 ITAAntonio PolitanoITAMercatone Uno-Saeco01:15:39  +  00:11:23=42,829 
132 BELCarlo BomansBELMapei-GP01:15:41  +  00:11:25=42,810 
133 ITAGiovanni LombardiITATeam Polti01:15:43  +  00:11:27=42,791 
134 COLHector CastanoESPKelme-Avianca01:15:45  +  00:11:29=42,772 
135 FRAJean-Pierre BourgeotFRAChazal-MBK-Konig01:15:48  +  00:11:32=42,744 
136 ITAMario ChiesaITACarrera-Tassoni01:15:51  +  00:11:35=42,716 
137 ITADavide CassaniITAMG Maglificio-Technogym01:15:54  +  00:11:38=42,688 
138 ITADavide PeronaITALampre-Panaria01:16:01  +  00:11:45=42,622 
139 ITAFrancesco FrattiniITAGewiss-Ballan01:16:06  +  00:11:50=42,576 
140 ENGSean YatesUSAMotorola01:16:06  +  00:11:50=42,576 
141 ITAGiancarlo PeriniITABrescialat01:16:12  +  00:11:56=42,520 
142 ITAFabio CasartelliUSAMotorola01:16:12  +  00:11:56=42,520 
143 SVKJán SvoradaITALampre-Panaria01:16:16  +  00:12:00=42,483 
144 ITAFranco VonaITAMG Maglificio-Technogym01:16:22  +  00:12:06=42,427 
145 ITAMauro RadaelliITABrescialat01:16:25  +  00:12:09=42,399 
146 FRAFrédéric MoncassinNLDNovell01:16:29  +  00:12:13=42,362 
147 ITAMarcello SiboniITACarrera-Tassoni01:16:29  +  00:12:13=42,362 
148 ESPÁngel EdoESPKelme-Avianca01:16:32  +  00:12:16=42,334 
149 FRABruno CornilletFRAChazal-MBK-Konig01:16:37  +  00:12:21=42,288 
150 FRAFrançois LemarchandFRAGan01:16:39  +  00:12:23=42,270 
151 BELRudy VerdonckBELLotto-Isoglass01:16:41  +  00:12:25=42,252 
152 ITAGilberto SimoniITAAki-Gipiemme01:16:43  +  00:12:27=42,233 
153 ESPJosé Angel VidalESPKelme-Avianca01:16:52  +  00:12:36=42,151 
154 ITAAlessandro BertoliniITACarrera-Tassoni01:16:57  +  00:12:41=42,105 
155 BELJim Van De LaerNLDTVM-Polis Direct01:16:58  +  00:12:42=42,096 
156 NZLStephen SwartUSAMotorola01:17:03  +  00:12:47=42,051 
157 FRAChristophe MenginFRAChazal-MBK-Konig01:17:29  +  00:13:13=41,815 
158 ITASergio BarberoITACarrera-Tassoni01:17:30  +  00:13:14=41,806 
159 ITAWladimir BelliITALampre-Panaria01:17:30  +  00:13:14=41,806 
160 ITAStefano ColagèITATelecom-ZG-Selle Italia01:17:33  +  00:13:17=41,779 
161 BELSammie MoreelsBELLotto-Isoglass01:17:43  +  00:13:27=41,690 
162 BELPeter FarazijnBELLotto-Isoglass01:18:00  +  00:13:44=41,538 
163 FRAThierry GouvenouFRAGan01:18:06  +  00:13:50=41,485 
164 FRAGilles DelionFRAChazal-MBK-Konig01:18:09  +  00:13:53=41,459 
165 NEDErik DekkerNLDNovell01:18:09  +  00:13:53=41,459 
166 FRADante RezzeITAAki-Gipiemme01:18:14  +  00:13:58=41,415 
167 BELMario De ClercqBELLotto-Isoglass01:18:26  +  00:14:10=41,309 
168 NEDTristan HoffmanNLDTVM-Polis Direct01:18:26  +  00:14:10=41,309 
169 BELPeter De ClercqBELLotto-Isoglass01:18:56  +  00:14:40=41,047 

Withdrawls: 1
 
Rider
Team
Reason
104  ESPFrancisco CabelloESPKelme-AviancaDid not start

Todays birthdays.

1902  Bernard Wiber
1908  Auguste Van Tricht
1910  Orlando Teani
1913  Gustaaf Deloor
1935  Jean Milesi
1972  Robbie McEwen




Visits: